Location: Newark
(35.2672°N, 80.7344°W)
Time: 06:54:40
(UTC+00:00)

Tiros 1 - Pass Details

Date: 25 January 2020
Orbit: 631 x 664 km, 48.4° (Epoch: 17 February)

Event Time Altitude Azimuth Distance (km) Brightness Sun altitude
Rises 01:35:03 0° 296° (WNW) 2,986 11.4 -35.1°
Reaches altitude 10° 01:37:40 10° 285° (WNW) 2,074 10.5 -35.6°
Enters shadow 01:39:51 21° 263° (W) 1,465 9.5 -36.1°
Maximum altitude 01:41:42 27° 227° (SW) 1,253 - -36.4°
Drops below altitude 10° 01:45:44 10° 170° (S) 2,069 - -37.3°
Sets 01:48:21 0° 158° (SSE) 2,978 - -37.8°
